Regional Weather Roundup
Issued by NWS Charleston, SC

Current Version | Previous Version | Graphics & Text | Print | Product List | Glossary On
Versions: 1 2 3 4 5 6 7 8 9 10 11 12 13 14 15 16 17 18 19 20 21 22 23 24 25 26 27 28 29 30 31 32 33 34 35 36 37 38 39 40 41 42 43 44 45 46 47 48 49 50
000
ASUS42 KCHS 070012
RWRCHS

REGIONAL WEATHER ROUNDUP
NATIONAL WEATHER SERVICE CHARLESTON SC
800 PM EDT MON JUL 06 2015

NOTE: "FAIR" INDICATES FEW OR NO CLOUDS BELOW 12,000 FEET WITH NO
SIGNIFICANT WEATHER AND/OR OBSTRUCTIONS TO VISIBILITY.

NOT ALL STATIONS ARE QUALITY CONTROLLED BY THE NATIONAL
WEATHER SERVICE. USE DATA WITH CAUTION...ESPECIALLY
DEWPOINT OBSERVATIONS.

SCZ027-030-031-034>040-042>050-070100-
...SOUTHEAST SOUTH CAROLINA...

CITY           SKY/WX    TMP DP  RH WIND       PRES   REMARKS
N CHARLESTON   PTCLDY    81  72  74 SW12      30.09S
6HR MIN TEMP:  81; 6HR MAX TEMP:  88;

WATERFRONT PAR   N/A     81  74  79 S8        30.07S
MOUNT PLEASANT FAIR      81  73  78 S6        30.10S
JOHNS ISLAND   FAIR      81  73  78 S9        30.10S
PINOPOLIS      NOT AVBL
MONCKS CORNER  FAIR      84  70  61 CALM      30.08S
SUMMERVILLE    FAIR      82  73  74 S5        30.09S
BEAUFORT MCAS  CLEAR     81  74  79 S7        30.10R THUNDER
6HR MIN TEMP:  81; 6HR MAX TEMP:  89;

BEAUFORT ARPT  FAIR      81  73  78 S7        30.10R
HILTON HEAD IS PTCLDY    79  73  83 SE7       30.11S
WALTERBORO     PTCLDY    79  72  78 S8        30.09S
ALLENDALE      FAIR      84  73  70 CALM      30.07S HX  91

...SOUTHERN MIDLANDS AND PEE DEE...

CITY           SKY/WX    TMP DP  RH WIND       PRES   REMARKS
GEORGETOWN     NOT AVBL
KINGSTREE      NOT AVBL
ORANGEBURG     CLEAR     84  70  62 S5        30.08S
6HR MIN TEMP:  83; 6HR MAX TEMP:  87;

BARNWELL       FAIR      86  72  62 SW5       30.08S HX  92
AIKEN          NOT AVBL
MANNING        FAIR      82  68  61 CALM      30.08S
COLUMBIA       PTCLDY    86  69  56 VRB5      30.06S HX  90
6HR MIN TEMP:  86; 6HR MAX TEMP:  91;

SUMTER         CLEAR     84  71  63 S7        30.06R
6HR MIN TEMP:  84; 6HR MAX TEMP:  89;

FLORENCE       CLEAR     85  70  60 S7        30.08R
6HR MIN TEMP:  84; 6HR MAX TEMP:  89;

MYRTLE BEACH   PTCLDY    82  72  69 S13       30.12S
N MYRTLE BEACH PTCLDY    81  73  76 S13       30.10S
6HR MIN TEMP:  81; 6HR MAX TEMP:  85;


$$

GAZ063-065-086>088-099>101-113>116-118-119-134>141-150-070100-
...SOUTHEAST GEORGIA...

CITY           SKY/WX    TMP DP  RH WIND       PRES   REMARKS
SAVANNAH ARPT  TSTM      77  72  84 VRB3      30.12R
6HR MIN TEMP:  77; 6HR MAX TEMP:  89; 6HR PCP:  0.09;

HUNTER AAF     LGT RAIN  72  72 100 E5        30.10R
                                      6HR PCP:  0.36;

FORT STEWART   MOCLDY    79  71  77 E5        30.09R
6HR MIN TEMP:  79; 6HR MAX TEMP:  90; 6HR PCP: TRACE;

STATESBORO     NOT AVBL
SYLVANIA       CLEAR     85  73  68 CALM      30.09S HX  92
CLAXTON        FAIR      86  72  62 W3        30.08S HX  92

...CSRA...CENTRAL AND FAR SOUTHEAST GEORGIA...

CITY           SKY/WX    TMP DP  RH WIND       PRES   REMARKS
THOMSON        CLEAR     87  73  62 CALM      30.12F HX  95
AUGUSTA-BUSH   MOCLDY    81  68  64 N9        30.06S THUNDER
6HR MIN TEMP:  81; 6HR MAX TEMP:  89;

AUGUSTA-DANIEL CLOUDY    84  68  58 E5        30.08F
SWAINSBORO     FAIR      82  72  69 W6        30.09S
VIDALIA        MOCLDY    84  68  58 CALM      30.09S
EASTMAN        FAIR      82  73  73 CALM      30.12S
HAZLEHURST     FAIR      84  72  66 CALM      30.09R HX  90
ALMA           CLEAR     83  70  64 CALM      30.10R
6HR MIN TEMP:  83; 6HR MAX TEMP:  88;

WAYCROSS       PTCLDY    87  74  64 NW3       30.10R HX  95
JESUP          FAIR      88  72  58 CALM      30.10R HX  94
BAXLEY         CLOUDY    86  70  58 CALM      30.10R HX  90
BRUNSWICK      PTCLDY    81  73  78 S8        30.12R
SAINT SIMONS   MOCLDY    79  72  79 S9        30.12R
6HR MIN TEMP:  79; 6HR MAX TEMP:  86; 6HR PCP:  0.01;


$$

SCZ027-028-034-036>038-045-046-048>050-GAZ119-141-070100-
...LAKE AND SUPPLEMENTAL COASTAL OBSERVATIONS...

STATION/POSITION TIME  TEMP    WIND        PRES    WAVE   SWELL
                       AIR SEA DIR/SP/G            HT/PER HT/PER/DIR
                 (UTC) (F)     (DEG/KT/KT) (MB)    (FT/S) (FT/S/D)
UPR LAKE MARION  NOT AVBL
WINYAH BAY       2245   80     190/  7     1018.0
LAKE MURRAY      NOT AVBL
ACE BASIN NERRS  NOT AVBL
FORT PULASKI     2300   80 84  150/  7/ 11 1019.7F
SAPELO ISLAND    2300   84     130/  5     1019.0S

$$

ANZ835-935-AMZ111-154-330-350-352-354-370-450-454-472-070100-
...C-MAN AND BUOY OBSERVATIONS...

STATION/POSITION TIME  TEMP    WIND        PRES    WAVE   SWELL
                       AIR SEA DIR/SP/G            HT/PER HT/PER/DIR
                 (UTC) (F)     (DEG/KT/KT) (MB)    (FT/S) (FT/S/D)
BUOY 41004       2350   81 83  200/ 12/ 12 1019.2F   3/ 9   2/ 9
BUOY 41008       2350   79 80  150/ 12/ 14 1019.7R   2/ 8   2/100/ 8
FOLLY BEACH CMAN 2300   80     190/ 13/ 15 1019.6R
CAPERS NEARSHORE 2308   81     200/ 14/ 16 1019.8R
FRIPP NEARSHORE  2300   81     180/ 10/ 12 1019.3R


STATION/POSITION TIME  TEMP    WIND        PRES    WAVE   SWELL
                       AIR SEA DIR/SP/G            HT/PER HT/PER/DIR
                 (UTC) (F)     (DEG/KT/KT) (MB)    (FT/S) (FT/S/D)
5E ST. MARYS GA  2321      78                N/A     2/ 8
FRYING PAN BUOY  2350   81 80  190/  8/ 10 1020.3R   3/ 8   2/120/ 8
BUOY 41025       2350   81 81  190/ 16/ 19 1019.6F   3/ 4   2/130/ 7
CAPE LOOKOUT NC  2300   82     200/ 11/ 13 1019.4S
BUOY 41002       2350   81 80  220/  8/ 10 1022.0S   4/ 8   3/140/ 8
BUOY 41010       2320   82 84  160/  6/  8 1021.2R
ST AUGUSTINE FL  0000   75 76  180/  5/  5 1021.5R


$$


USA.gov is the U.S. government's official web portal to all federal, state and local government web resources and services.